Location: Gull Harbor
(47.1000°N, 122.9000°W)
Time: 16:21:08
(UTC-07:00)

Envisat - Visible Passes

Search period start: 24 June 2024 00:00
Search period end: 04 July 2024 00:00
Orbit: 762 x 764 km, 98.3° (Epoch: 24 June)

Date Brightness Start Highest point End Pass type
(mag) Time Alt. Az. Time Alt. Az. Time Alt. Az.
24 Jun 3.3 04:26:22 10° NNE 04:31:28 71° ESE 04:36:30 10° S visible
25 Jun 4.5 03:49:19 10° NNE 03:53:55 33° E 03:58:28 10° SSE visible
26 Jun 5.4 03:13:04 10° NE 03:16:10 16° E 03:19:15 10° SE visible
27 Jun 3.7 04:13:16 10° NNE 04:18:16 54° E 04:23:14 10° S visible
28 Jun 4.8 03:36:26 10° NE 03:40:40 26° E 03:44:52 10° SSE visible
29 Jun 5.6 03:00:51 10° ENE 03:02:50 12° E 03:04:49 10° ESE visible
30 Jun 4.1 04:00:15 10° NNE 04:05:04 42° E 04:09:51 10° SSE visible
01 Jul 5.2 03:23:39 10° NE 03:27:23 20° E 03:31:05 10° SE visible
02 Jul 3.3 04:24:18 10° NNE 04:29:23 69° ESE 04:34:25 10° S visible
03 Jul 4.5 03:47:16 10° NNE 03:51:50 32° E 03:56:21 10° SSE visible
